QPF
0.02 0.02 0.02 0.02 0.01 0.01 0.01 0.01 0.01 0.01 0.01 0.01 0.01 0.01 0.01 0.01 0.01 0.01 0.01 0.01 0.01 0.01 0.01 0.01 0.00 0.00 0.00 0.01 0.01 0.02 0.03 0.04 0.07 0.11 0.10 0.09 0.06 0.05 0.04 0.02 0.02 0.02 0.02 0.02
0.02 0.02 0.01 0.00 0.01 0.01 0.01 0.02 0.01 0.01 0.01 0.02 0.02 0.01 0.01 0.01 0.01 0.01 0.01 0.01 0.01 0.00 0.00 0.00 0.00 0.00 0.00 0.01 0.01 0.01 0.02 0.03 0.05 0.09 0.09 0.07 0.04 0.03 0.04 0.04 0.04 0.03 0.03 0.03
0.02 0.01 0.00 0.01 0.01 0.01 0.01 0.01 0.01 0.01 0.01 0.02 0.02 0.02 0.01 0.01 0.01 0.01 0.01 0.01 0.00 0.00 0.00 0.00 0.00 0.00 0.00 0.00 0.00 0.00 0.01 0.02 0.03 0.07 0.10 0.08 0.06 0.04 0.04 0.03 0.03 0.03 0.03 0.04
0.01 0.01 0.01 0.01 0.01 0.01 0.01 0.01 0.01 0.02 0.02 0.03 0.03 0.03 0.01 0.01 0.00 0.01 0.01 0.01 0.00 0.00 0.00 0.00 0.00 0.00 0.00 0.00 0.00 0.00 0.00 0.01 0.01 0.04 0.08 0.10 0.07 0.05 0.03 0.03 0.02 0.02 0.02 0.03
0.02 0.01 0.01 0.01 0.01 0.01 0.01 0.01 0.01 0.02 0.02 0.03 0.03 0.02 0.01 0.00 0.00 0.00 0.01 0.01 0.00 0.00 0.00 0.00 0.00 0.00 0.00 0.00 0.00 0.00 0.00 0.00 0.01 0.02 0.05 0.07 0.07 0.06 0.04 0.04 0.04 0.03 0.03 0.03
0.01 0.01 0.01 0.01 0.01 0.01 0.01 0.02 0.03 0.03 0.04 0.04 0.02 0.01 0.01 0.00 0.00 0.01 0.00 0.00 0.00 0.00 0.00 0.00 0.00 0.00 0.00 0.00 0.00 0.00 0.00 0.00 0.01 0.01 0.03 0.04 0.06 0.06 0.05 0.04 0.04 0.04 0.04 0.04
0.01 0.01 0.01 0.01 0.01 0.01 0.02 0.03 0.06 0.06 0.06 0.04 0.01 0.01 0.01 0.01 0.01 0.01 0.00 0.00 0.00 0.00 0.00 0.00 0.00 0.00 0.00 0.00 0.01 0.01 0.00 0.00 0.01 0.01 0.01 0.03 0.04 0.05 0.05 0.03 0.03 0.03 0.03 0.03
0.02 0.01 0.01 0.01 0.02 0.02 0.02 0.02 0.05 0.05 0.03 0.01 0.01 0.01 0.01 0.00 0.00 0.00 0.00 0.00 0.00 0.00 0.00 0.00 0.00 0.01 0.01 0.01 0.01 0.01 0.00 0.00 0.00 0.01 0.01 0.02 0.03 0.04 0.05 0.04 0.03 0.03 0.02 0.02
0.02 0.02 0.01 0.01 0.01 0.01 0.02 0.01 0.01 0.03 0.02 0.01 0.01 0.00 0.01 0.00 0.00 0.00 0.00 0.00 0.00 0.00 0.00 0.00 0.00 0.01 0.01 0.01 0.01 0.01 0.01 0.00 0.00 0.01 0.01 0.01 0.01 0.03 0.04 0.05 0.04 0.03 0.02 0.02
0.01 0.02 0.02 0.02 0.02 0.02 0.02 0.02 0.02 0.02 0.02 0.01 0.01 0.01 0.01 0.00 0.01 0.01 0.00 0.00 0.00 0.00 0.00 0.00 0.00 0.01 0.02 0.01 0.01 0.01 0.01 0.01 0.01 0.01 0.01 0.01 0.01 0.02 0.02 0.03 0.04 0.04 0.03 0.03
0.01 0.01 0.01 0.02 0.02 0.03 0.03 0.03 0.03 0.03 0.02 0.01 0.01 0.01 0.01 0.00 0.00 0.00 0.00 0.00 0.00 0.00 0.00 0.00 0.01 0.01 0.02 0.02 0.01 0.01 0.01 0.01 0.01 0.01 0.01 0.01 0.01 0.02 0.02 0.02 0.02 0.02 0.02 0.03
0.01 0.01 0.01 0.01 0.01 0.01 0.02 0.03 0.04 0.04 0.03 0.01 0.01 0.01 0.01 0.01 0.01 0.00 0.00 0.00 0.00 0.00 0.00 0.01 0.01 0.01 0.02 0.02 0.01 0.01 0.01 0.00 0.01 0.01 0.01 0.01 0.02 0.02 0.03 0.03 0.03 0.03 0.03 0.03
0.02 0.03 0.03 0.02 0.01 0.01 0.01 0.02 0.02 0.02 0.02 0.01 0.01 0.01 0.01 0.01 0.01 0.01 0.00 0.00 0.00 0.00 0.00 0.01 0.01 0.01 0.01 0.01 0.01 0.01 0.01 0.00 0.00 0.01 0.01 0.01 0.01 0.02 0.03 0.04 0.05 0.04 0.04 0.04
0.03 0.05 0.04 0.02 0.01 0.01 0.01 0.01 0.01 0.01 0.01 0.01 0.01 0.01 0.00 0.00 0.00 0.00 0.00 0.00 0.00 0.00 0.00 0.01 0.01 0.00 0.00 0.01 0.01 0.01 0.00 0.00 0.00 0.01 0.01 0.01 0.01 0.02 0.02 0.03 0.05 0.05 0.05 0.05
0.03 0.04 0.03 0.01 0.01 0.01 0.01 0.01 0.01 0.01 0.01 0.01 0.01 0.01 0.01 0.00 0.00 0.00 0.00 0.00 0.00 0.00 0.00 0.00 0.00 0.00 0.00 0.00 0.01 0.00 0.00 0.00 0.00 0.00 0.00 0.01 0.01 0.01 0.02 0.02 0.03 0.04 0.05 0.05
0.03 0.04 0.02 0.01 0.01 0.01 0.01 0.01 0.01 0.01 0.01 0.01 0.01 0.01 0.01 0.00 0.00 0.00 0.00 0.00 0.00 0.00 0.00 0.00 0.00 0.00 0.00 0.01 0.01 0.01 0.01 0.01 0.01 0.01 0.00 0.00 0.01 0.01 0.01 0.02 0.02 0.03 0.03 0.04
0.04 0.04 0.04 0.02 0.01 0.01 0.01 0.00 0.00 0.00 0.01 0.01 0.01 0.01 0.00 0.00 0.00 0.00 0.00 0.00 0.00 0.00 0.00 0.00 0.00 0.00 0.00 0.01 0.01 0.02 0.02 0.02 0.01 0.01 0.01 0.01 0.00 0.01 0.01 0.01 0.02 0.02 0.02 0.02
0.03 0.03 0.05 0.04 0.02 0.03 0.01 0.00 0.00 0.00 0.00 0.01 0.01 0.01 0.01 0.00 0.00 0.00 0.00 0.00 0.00 0.00 0.00 0.00 0.00 0.01 0.01 0.00 0.01 0.01 0.01 0.02 0.01 0.01 0.00 0.00 0.00 0.00 0.00 0.01 0.01 0.01 0.02 0.02
0.02 0.03 0.05 0.05 0.04 0.02 0.01 0.01 0.01 0.01 0.01 0.01 0.01 0.01 0.01 0.00 0.00 0.00 0.00 0.00 0.00 0.00 0.00 0.00 0.00 0.01 0.00 0.00 0.00 0.01 0.01 0.01 0.01 0.01 0.00 0.00 0.00 0.00 0.00 0.01 0.01 0.01 0.01 0.01
0.01 0.02 0.05 0.06 0.05 0.03 0.01 0.01 0.01 0.01 0.01 0.01 0.01 0.01 0.01 0.01 0.01 0.00 0.00 0.00 0.00 0.00 0.00 0.01 0.01 0.00 0.00 0.00 0.00 0.00 0.00 0.01 0.01 0.01 0.01 0.00 0.00 0.00 0.00 0.01 0.01 0.01 0.01 0.01
0.01 0.03 0.04 0.05 0.05 0.03 0.02 0.01 0.01 0.02 0.02 0.01 0.01 0.01 0.01 0.01 0.01 0.01 0.00 0.00 0.00 0.00 0.00 0.00 0.00 0.00 0.00 0.00 0.00 0.01 0.01 0.01 0.01 0.02 0.02 0.01 0.01 0.01 0.01 0.01 0.01 0.01 0.01 0.01
0.01 0.02 0.02 0.03 0.04 0.03 0.01 0.01 0.01 0.02 0.02 0.01 0.01 0.01 0.01 0.01 0.01 0.01 0.00 0.00 0.00 0.01 0.01 0.01 0.01 0.01 0.00 0.00 0.01 0.01 0.01 0.01 0.01 0.02 0.02 0.02 0.02 0.02 0.02 0.01 0.01 0.01 0.01 0.01
0.01 0.02 0.02 0.03 0.03 0.02 0.01 0.01 0.01 0.02 0.01 0.01 0.01 0.01 0.01 0.01 0.01 0.01 0.01 0.01 0.01 0.01 0.01 0.01 0.01 0.01 0.01 0.00 0.01 0.01 0.01 0.01 0.01 0.01 0.01 0.01 0.01 0.02 0.02 0.02 0.02 0.02 0.02 0.02
0.01 0.01 0.02 0.02 0.02 0.02 0.02 0.01 0.01 0.01 0.01 0.01 0.01 0.01 0.01 0.01 0.00 0.01 0.01 0.01 0.01 0.01 0.01 0.01 0.01 0.01 0.01 0.01 0.01 0.01 0.01 0.00 0.00 0.00 0.01 0.01 0.01 0.01 0.01 0.02 0.02 0.03 0.03 0.03
0.01 0.01 0.02 0.02 0.02 0.01 0.01 0.01 0.01 0.01 0.01 0.01 0.01 0.01 0.01 0.00 0.00 0.00 0.01 0.01 0.01 0.01 0.01 0.01 0.01 0.01 0.01 0.01 0.01 0.01 0.01 0.01 0.00 0.00 0.00 0.01 0.01 0.01 0.01 0.01 0.02 0.02 0.03 0.04
0.01 0.01 0.02 0.02 0.01 0.01 0.01 0.01 0.01 0.01 0.01 0.01 0.01 0.01 0.01 0.01 0.00 0.00 0.00 0.01 0.01 0.01 0.01 0.00 0.00 0.01 0.01 0.01 0.01 0.01 0.01 0.01 0.01 0.01 0.01 0.01 0.01 0.01 0.01 0.01 0.02 0.02 0.03 0.03
MSLP
1018.98 1019.63 1020.34 1021.05 1021.69 1022.21 1022.58 1022.80 1022.88 1022.85 1022.75 1022.62 1022.48 1022.34 1022.20 1022.07 1021.92 1021.77 1021.63 1021.51 1021.43 1021.42 1021.50 1021.67 1021.93 1022.26 1022.60 1022.93 1023.18 1023.33 1023.34 1023.22 1022.96 1022.61 1022.18 1021.71 1021.23 1020.75 1020.28 1019.82 1019.35 1018.84 1018.29 1017.65
1020.20 1020.82 1021.46 1022.04 1022.51 1022.85 1023.04 1023.10 1023.05 1022.92 1022.76 1022.59 1022.43 1022.29 1022.16 1022.03 1021.90 1021.76 1021.63 1021.53 1021.46 1021.46 1021.55 1021.73 1021.98 1022.30 1022.64 1022.97 1023.25 1023.44 1023.51 1023.48 1023.33 1023.08 1022.75 1022.37 1021.94 1021.48 1021.01 1020.51 1019.98 1019.41 1018.80 1018.14
1021.47 1022.07 1022.64 1023.10 1023.43 1023.61 1023.63 1023.54 1023.35 1023.11 1022.87 1022.64 1022.44 1022.27 1022.12 1021.99 1021.87 1021.76 1021.66 1021.58 1021.55 1021.58 1021.68 1021.86 1022.11 1022.41 1022.73 1023.05 1023.33 1023.55 1023.69 1023.73 1023.68 1023.54 1023.32 1023.02 1022.65 1022.22 1021.73 1021.20 1020.62 1020.00 1019.34 1018.65
1022.66 1023.27 1023.78 1024.16 1024.37 1024.42 1024.31 1024.08 1023.77 1023.43 1023.10 1022.79 1022.52 1022.30 1022.11 1021.97 1021.84 1021.74 1021.68 1021.64 1021.66 1021.72 1021.86 1022.05 1022.29 1022.57 1022.86 1023.16 1023.43 1023.67 1023.85 1023.96 1024.00 1023.96 1023.83 1023.61 1023.29 1022.89 1022.40 1021.84 1021.22 1020.56 1019.87 1019.16
1023.68 1024.30 1024.78 1025.10 1025.23 1025.19 1024.99 1024.67 1024.28 1023.86 1023.44 1023.06 1022.71 1022.42 1022.18 1021.99 1021.84 1021.75 1021.70 1021.71 1021.77 1021.89 1022.05 1022.26 1022.50 1022.76 1023.03 1023.30 1023.56 1023.80 1024.00 1024.17 1024.27 1024.31 1024.26 1024.10 1023.84 1023.46 1022.98 1022.40 1021.76 1021.07 1020.36 1019.63
1024.44 1025.06 1025.52 1025.81 1025.90 1025.82 1025.58 1025.24 1024.82 1024.36 1023.89 1023.44 1023.03 1022.66 1022.34 1022.09 1021.91 1021.80 1021.76 1021.79 1021.90 1022.05 1022.26 1022.49 1022.73 1022.98 1023.23 1023.47 1023.71 1023.94 1024.16 1024.35 1024.50 1024.59 1024.60 1024.50 1024.28 1023.93 1023.46 1022.88 1022.23 1021.53 1020.80 1020.06
1024.91 1025.51 1025.96 1026.22 1026.31 1026.24 1026.03 1025.71 1025.32 1024.87 1024.40 1023.93 1023.46 1023.03 1022.63 1022.31 1022.07 1021.91 1021.86 1021.90 1022.02 1022.21 1022.45 1022.70 1022.96 1023.20 1023.44 1023.66 1023.87 1024.09 1024.31 1024.51 1024.68 1024.81 1024.86 1024.80 1024.61 1024.30 1023.84 1023.28 1022.63 1021.93 1021.19 1020.46
1025.11 1025.67 1026.09 1026.34 1026.46 1026.43 1026.29 1026.06 1025.74 1025.37 1024.94 1024.47 1023.98 1023.49 1023.03 1022.62 1022.30 1022.09 1021.99 1022.02 1022.14 1022.34 1022.59 1022.87 1023.13 1023.39 1023.61 1023.82 1024.02 1024.23 1024.43 1024.64 1024.83 1024.97 1025.05 1025.02 1024.87 1024.58 1024.16 1023.62 1022.98 1022.29 1021.56 1020.83
1025.10 1025.60 1025.98 1026.23 1026.37 1026.41 1026.37 1026.26 1026.06 1025.79 1025.44 1025.01 1024.53 1024.00 1023.48 1022.99 1022.59 1022.30 1022.13 1022.11 1022.21 1022.40 1022.66 1022.94 1023.22 1023.48 1023.71 1023.92 1024.12 1024.31 1024.52 1024.72 1024.92 1025.07 1025.17 1025.17 1025.05 1024.80 1024.41 1023.90 1023.30 1022.63 1021.92 1021.20
1024.97 1025.40 1025.73 1025.98 1026.15 1026.27 1026.33 1026.34 1026.27 1026.12 1025.86 1025.49 1025.02 1024.48 1023.90 1023.34 1022.84 1022.46 1022.22 1022.12 1022.17 1022.34 1022.58 1022.87 1023.16 1023.43 1023.67 1023.90 1024.10 1024.30 1024.51 1024.72 1024.92 1025.09 1025.20 1025.23 1025.15 1024.94 1024.59 1024.14 1023.58 1022.95 1022.28 1021.57
1024.85 1025.21 1025.49 1025.72 1025.91 1026.08 1026.23 1026.34 1026.38 1026.33 1026.15 1025.83 1025.38 1024.82 1024.19 1023.56 1022.98 1022.51 1022.17 1022.00 1021.99 1022.11 1022.34 1022.61 1022.91 1023.19 1023.46 1023.70 1023.93 1024.15 1024.37 1024.59 1024.81 1024.99 1025.13 1025.19 1025.15 1024.99 1024.71 1024.31 1023.82 1023.25 1022.62 1021.96
1024.83 1025.13 1025.37 1025.57 1025.76 1025.95 1026.14 1026.31 1026.41 1026.41 1026.28 1025.99 1025.54 1024.96 1024.29 1023.59 1022.93 1022.38 1021.96 1021.72 1021.64 1021.71 1021.90 1022.17 1022.47 1022.77 1023.06 1023.33 1023.58 1023.83 1024.07 1024.32 1024.56 1024.77 1024.94 1025.04 1025.05 1024.95 1024.74 1024.42 1024.01 1023.51 1022.96 1022.36
1024.96 1025.22 1025.41 1025.58 1025.74 1025.91 1026.09 1026.25 1026.35 1026.36 1026.22 1025.92 1025.46 1024.85 1024.14 1023.40 1022.68 1022.06 1021.58 1021.27 1021.14 1021.16 1021.32 1021.57 1021.87 1022.18 1022.50 1022.80 1023.08 1023.37 1023.64 1023.92 1024.19 1024.43 1024.64 1024.79 1024.85 1024.82 1024.70 1024.47 1024.15 1023.75 1023.28 1022.76
1025.25 1025.48 1025.63 1025.75 1025.85 1025.96 1026.07 1026.16 1026.20 1026.15 1025.96 1025.62 1025.13 1024.49 1023.75 1022.98 1022.24 1021.58 1021.06 1020.71 1020.54 1020.53 1020.66 1020.89 1021.18 1021.50 1021.84 1022.17 1022.49 1022.81 1023.12 1023.44 1023.74 1024.02 1024.27 1024.47 1024.60 1024.65 1024.61 1024.48 1024.26 1023.96 1023.59 1023.16
1025.66 1025.86 1025.96 1026.01 1026.03 1026.03 1026.03 1026.00 1025.92 1025.77 1025.50 1025.10 1024.56 1023.90 1023.16 1022.40 1021.66 1021.00 1020.48 1020.12 1019.93 1019.89 1020.00 1020.22 1020.50 1020.83 1021.18 1021.53 1021.89 1022.24 1022.59 1022.94 1023.28 1023.60 1023.90 1024.15 1024.34 1024.47 1024.51 1024.48 1024.36 1024.17 1023.91 1023.58
1026.09 1026.25 1026.29 1026.25 1026.16 1026.03 1025.87 1025.70 1025.48 1025.19 1024.83 1024.36 1023.79 1023.14 1022.43 1021.71 1021.02 1020.42 1019.93 1019.59 1019.40 1019.36 1019.46 1019.66 1019.93 1020.25 1020.61 1020.98 1021.36 1021.74 1022.12 1022.51 1022.88 1023.25 1023.59 1023.89 1024.14 1024.33 1024.45 1024.51 1024.49 1024.39 1024.23 1024.00
1026.42 1026.53 1026.50 1026.35 1026.13 1025.85 1025.53 1025.19 1024.82 1024.41 1023.96 1023.45 1022.88 1022.27 1021.63 1021.00 1020.41 1019.89 1019.48 1019.19 1019.03 1019.00 1019.09 1019.28 1019.54 1019.85 1020.20 1020.57 1020.97 1021.37 1021.79 1022.20 1022.61 1023.01 1023.39 1023.73 1024.03 1024.28 1024.47 1024.60 1024.65 1024.64 1024.56 1024.42
1026.53 1026.57 1026.45 1026.20 1025.84 1025.41 1024.94 1024.44 1023.94 1023.43 1022.92 1022.40 1021.88 1021.35 1020.83 1020.33 1019.88 1019.49 1019.18 1018.97 1018.87 1018.86 1018.95 1019.12 1019.35 1019.65 1019.99 1020.36 1020.76 1021.18 1021.62 1022.06 1022.50 1022.93 1023.34 1023.71 1024.05 1024.34 1024.57 1024.75 1024.87 1024.92 1024.90 1024.82
1026.34 1026.30 1026.09 1025.73 1025.25 1024.68 1024.07 1023.45 1022.85 1022.29 1021.76 1021.28 1020.83 1020.43 1020.06 1019.74 1019.45 1019.22 1019.05 1018.93 1018.89 1018.91 1019.00 1019.15 1019.37 1019.64 1019.96 1020.32 1020.72 1021.15 1021.60 1022.06 1022.53 1022.98 1023.41 1023.81 1024.17 1024.48 1024.75 1024.96 1025.11 1025.20 1025.22 1025.18
1025.81 1025.70 1025.40 1024.94 1024.36 1023.69 1022.99 1022.29 1021.63 1021.05 1020.55 1020.14 1019.82 1019.57 1019.38 1019.24 1019.14 1019.07 1019.03 1019.03 1019.05 1019.10 1019.20 1019.34 1019.53 1019.77 1020.07 1020.41 1020.80 1021.23 1021.69 1022.17 1022.65 1023.11 1023.56 1023.97 1024.35 1024.67 1024.95 1025.18 1025.34 1025.45 1025.50 1025.48
1024.95 1024.78 1024.43 1023.90 1023.25 1022.52 1021.76 1021.03 1020.37 1019.81 1019.38 1019.07 1018.88 1018.79 1018.78 1018.83 1018.91 1019.01 1019.11 1019.20 1019.29 1019.38 1019.48 1019.61 1019.77 1019.99 1020.25 1020.57 1020.95 1021.37 1021.83 1022.31 1022.79 1023.27 1023.73 1024.15 1024.53 1024.86 1025.14 1025.37 1025.54 1025.66 1025.71 1025.71
1023.82 1023.62 1023.23 1022.68 1022.01 1021.27 1020.51 1019.79 1019.17 1018.67 1018.32 1018.12 1018.07 1018.14 1018.30 1018.52 1018.76 1019.00 1019.22 1019.40 1019.55 1019.67 1019.78 1019.90 1020.05 1020.23 1020.46 1020.76 1021.11 1021.51 1021.96 1022.43 1022.91 1023.39 1023.85 1024.27 1024.65 1024.99 1025.27 1025.50 1025.68 1025.80 1025.86 1025.86
1022.49 1022.29 1021.91 1021.38 1020.74 1020.03 1019.32 1018.66 1018.11 1017.69 1017.45 1017.36 1017.44 1017.65 1017.95 1018.30 1018.67 1019.03 1019.34 1019.60 1019.80 1019.95 1020.08 1020.19 1020.31 1020.47 1020.67 1020.93 1021.25 1021.63 1022.05 1022.50 1022.97 1023.44 1023.89 1024.31 1024.70 1025.04 1025.33 1025.56 1025.74 1025.87 1025.94 1025.95
1021.04 1020.86 1020.52 1020.05 1019.48 1018.86 1018.25 1017.69 1017.24 1016.93 1016.79 1016.82 1017.00 1017.31 1017.71 1018.17 1018.63 1019.07 1019.45 1019.77 1020.02 1020.20 1020.34 1020.45 1020.56 1020.69 1020.87 1021.09 1021.37 1021.71 1022.09 1022.51 1022.95 1023.40 1023.84 1024.27 1024.66 1025.01 1025.31 1025.56 1025.76 1025.90 1025.98 1026.00
1019.51 1019.35 1019.08 1018.71 1018.26 1017.77 1017.29 1016.87 1016.55 1016.37 1016.34 1016.46 1016.73 1017.11 1017.59 1018.10 1018.63 1019.12 1019.55 1019.91 1020.20 1020.41 1020.57 1020.69 1020.79 1020.91 1021.06 1021.24 1021.48 1021.76 1022.10 1022.48 1022.88 1023.30 1023.73 1024.15 1024.55 1024.91 1025.24 1025.52 1025.74 1025.91 1026.01 1026.05
1017.89 1017.77 1017.58 1017.33 1017.03 1016.71 1016.40 1016.15 1015.99 1015.94 1016.03 1016.24 1016.58 1017.02 1017.53 1018.08 1018.63 1019.15 1019.62 1020.02 1020.34 1020.58 1020.76 1020.90 1021.02 1021.12 1021.24 1021.39 1021.58 1021.82 1022.10 1022.42 1022.78 1023.17 1023.58 1023.99 1024.40 1024.79 1025.15 1025.46 1025.71 1025.91 1026.04 1026.11
Thickness
5574 5568 5566 5570 5572 5573 5572 5572 5573 5577 5579 5573 5573 5578 5587 5590 5589 5590 5591 5592 5592 5593 5594 5593 5592 5590 5588 5586 5585 5583 5581 5580 5578 5577 5576 5575 5574 5573 5572 5572 5571 5571 5570 5568
5566 5562 5568 5569 5569 5566 5565 5564 5568 5572 5573 5568 5569 5574 5586 5589 5588 5589 5589 5589 5590 5590 5588 5588 5586 5585 5582 5581 5580 5579 5578 5576 5575 5573 5572 5571 5569 5568 5567 5565 5564 5564 5563 5563
5560 5562 5564 5563 5561 5560 5561 5559 5560 5559 5562 5564 5561 5571 5583 5589 5588 5587 5588 5588 5589 5587 5584 5584 5582 5580 5578 5576 5576 5575 5573 5572 5569 5567 5565 5564 5562 5561 5559 5558 5558 5558 5557 5556
5557 5557 5557 5556 5556 5554 5555 5556 5554 5552 5547 5551 5557 5555 5580 5584 5582 5583 5583 5583 5584 5584 5582 5580 5578 5576 5574 5572 5571 5570 5568 5566 5564 5562 5560 5559 5557 5556 5555 5554 5553 5552 5551 5550
5550 5550 5549 5549 5550 5548 5549 5550 5549 5547 5544 5541 5552 5547 5571 5582 5580 5582 5581 5581 5580 5579 5578 5576 5574 5572 5571 5568 5566 5565 5563 5561 5559 5557 5555 5553 5552 5551 5549 5548 5547 5546 5545 5544
5541 5543 5542 5543 5543 5543 5543 5542 5542 5539 5536 5532 5551 5546 5561 5577 5582 5584 5581 5577 5575 5574 5573 5571 5568 5566 5564 5562 5561 5559 5557 5555 5553 5551 5549 5547 5546 5544 5543 5542 5541 5540 5538 5537
5535 5536 5536 5535 5534 5534 5535 5532 5528 5529 5527 5537 5551 5544 5558 5580 5582 5581 5577 5573 5570 5568 5566 5563 5561 5558 5557 5555 5554 5553 5552 5550 5548 5546 5544 5542 5540 5538 5537 5537 5536 5534 5533 5532
5529 5531 5530 5527 5528 5527 5530 5530 5524 5526 5532 5541 5540 5540 5562 5573 5575 5574 5572 5567 5564 5561 5558 5556 5554 5552 5550 5549 5547 5546 5544 5544 5543 5541 5539 5536 5534 5533 5531 5531 5530 5529 5528 5527
5524 5525 5522 5521 5521 5521 5524 5522 5527 5522 5518 5518 5539 5556 5565 5567 5565 5564 5562 5559 5556 5554 5552 5550 5548 5546 5544 5542 5540 5539 5537 5536 5535 5534 5533 5531 5529 5528 5527 5525 5524 5524 5522 5521
5515 5509 5512 5511 5511 5511 5514 5518 5514 5513 5513 5521 5543 5552 5552 5556 5555 5554 5552 5549 5549 5548 5546 5544 5541 5538 5537 5535 5533 5531 5529 5528 5528 5526 5525 5525 5523 5522 5521 5520 5518 5517 5516 5515
5503 5499 5500 5501 5502 5507 5505 5507 5509 5513 5516 5519 5526 5543 5559 5555 5552 5548 5546 5544 5542 5541 5538 5535 5533 5530 5528 5526 5524 5522 5521 5520 5518 5517 5517 5516 5516 5515 5514 5513 5513 5512 5510 5508
5493 5492 5493 5499 5500 5501 5503 5507 5505 5503 5506 5512 5519 5532 5552 5549 5545 5541 5537 5534 5533 5533 5530 5527 5524 5521 5519 5517 5515 5513 5512 5511 5510 5509 5508 5508 5508 5507 5507 5506 5506 5504 5503 5501
5480 5480 5483 5495 5490 5485 5489 5496 5497 5496 5498 5501 5506 5525 5539 5536 5534 5531 5527 5524 5523 5522 5520 5517 5514 5511 5509 5507 5506 5504 5503 5501 5501 5500 5500 5499 5499 5498 5498 5497 5497 5496 5495 5494
5472 5468 5476 5490 5498 5486 5479 5483 5485 5485 5486 5494 5508 5520 5529 5526 5524 5522 5519 5516 5513 5511 5508 5505 5502 5501 5499 5497 5496 5494 5493 5492 5492 5491 5490 5490 5490 5489 5489 5488 5487 5487 5486 5486
5455 5453 5459 5467 5473 5476 5477 5478 5476 5476 5487 5491 5508 5511 5522 5519 5516 5514 5511 5507 5504 5500 5497 5494 5491 5490 5489 5487 5486 5484 5483 5483 5482 5481 5481 5481 5480 5480 5479 5478 5478 5478 5477 5476
5439 5438 5443 5449 5459 5460 5462 5472 5473 5474 5477 5482 5491 5499 5512 5508 5506 5503 5500 5497 5493 5488 5485 5483 5482 5480 5479 5478 5477 5475 5474 5473 5472 5471 5471 5471 5471 5470 5469 5468 5468 5467 5467 5466
5427 5427 5433 5444 5448 5448 5455 5473 5471 5471 5474 5476 5480 5491 5495 5495 5492 5487 5486 5484 5481 5477 5475 5472 5470 5470 5468 5467 5467 5465 5464 5463 5462 5462 5462 5461 5461 5460 5459 5458 5457 5457 5456 5456
5418 5420 5422 5427 5433 5444 5477 5479 5474 5467 5465 5466 5469 5474 5475 5475 5473 5469 5468 5468 5467 5466 5463 5461 5459 5458 5457 5457 5457 5456 5455 5453 5452 5451 5451 5451 5450 5450 5449 5448 5447 5447 5447 5446
5414 5414 5415 5418 5426 5448 5465 5462 5458 5457 5458 5458 5456 5460 5461 5462 5462 5461 5458 5456 5453 5452 5450 5449 5447 5447 5446 5446 5445 5445 5444 5443 5441 5440 5439 5439 5439 5439 5438 5438 5437 5437 5436 5436
5402 5403 5404 5410 5418 5432 5456 5449 5451 5452 5449 5450 5450 5449 5449 5449 5452 5453 5445 5441 5440 5439 5437 5436 5435 5435 5434 5433 5433 5433 5432 5430 5429 5428 5427 5426 5427 5427 5427 5426 5426 5425 5425 5424
5384 5387 5391 5398 5406 5422 5432 5429 5438 5438 5441 5434 5433 5431 5431 5431 5431 5429 5427 5426 5425 5425 5423 5423 5422 5421 5420 5420 5420 5419 5418 5417 5416 5415 5414 5414 5414 5414 5414 5413 5413 5413 5412 5411
5387 5383 5384 5392 5397 5413 5413 5412 5415 5419 5417 5415 5414 5413 5412 5411 5412 5411 5411 5411 5411 5410 5410 5409 5407 5407 5406 5405 5405 5404 5403 5403 5401 5401 5401 5401 5401 5401 5401 5400 5400 5399 5398 5397
5390 5392 5394 5398 5404 5404 5397 5399 5396 5397 5399 5397 5396 5396 5395 5396 5396 5397 5397 5397 5397 5396 5395 5393 5392 5391 5390 5389 5389 5389 5389 5388 5387 5387 5387 5387 5388 5388 5387 5387 5386 5385 5384 5383
5378 5380 5384 5384 5388 5388 5384 5383 5381 5381 5380 5379 5379 5379 5379 5379 5381 5381 5382 5382 5381 5380 5379 5378 5376 5375 5375 5373 5373 5373 5373 5373 5373 5373 5374 5374 5374 5374 5373 5372 5372 5370 5369 5368
5366 5360 5365 5369 5370 5369 5370 5365 5365 5365 5363 5362 5362 5362 5362 5362 5363 5364 5365 5364 5363 5363 5362 5362 5360 5360 5359 5358 5358 5358 5358 5358 5358 5359 5359 5359 5359 5359 5358 5357 5356 5356 5356 5355
5340 5339 5348 5361 5351 5353 5356 5348 5347 5346 5344 5343 5342 5344 5344 5343 5344 5345 5346 5346 5346 5346 5346 5345 5345 5345 5344 5344 5343 5343 5343 5344 5344 5345 5345 5345 5345 5344 5344 5343 5342 5342 5341 5341